Location: Unspecified
(45.3712°N, 0.6436°E)
Time: 13:57:00
(UTC+02:00)

ISS - Pass Details

Date: 14 July 2018
Orbit: 402 x 408 km, 51.6° (Epoch: 21 July)

Event Time Altitude Azimuth Distance (km) Brightness Sun altitude
Exits shadow 04:13:06 - 287° (WNW) 1,700 -0.8 -16.7°
Reaches altitude 10° 04:13:44 10° 292° (WNW) 1,470 -1.1 -16.7°
Maximum altitude 04:16:37 27° 353° (N) 815 -1.8 -16.4°
Drops below altitude 10° 04:19:31 10° 55° (NE) 1,474 0.1 -16.1°
Sets 04:21:48 0° 68° (ENE) 2,336 1.0 -15.9°
